This demonstration page uses our WeatherBlox Daily Observations layout. Learn more.

Left ArrowRight Arrow

39.01783, -85.05884

Hourly Observations for April 22, 2020

Temp ( °F °C ) Dew Point ( °F °C ) Humidity (%) Winds ( mph kmh ) Pressure ( in mb ) Visibility ( mi km ) Precip ( " mm )
12:52 am 00:52 Clear 44 6.7 18 -7.8 35 35 WNW 3 6 30.02 1017 10 16 N/A
1:52 am 01:52 Clear 37 2.8 22 -5.6 54 54 E 3 6 30.04 1017 10 16 N/A
2:52 am 02:52 Clear 39 3.9 22 -5.6 50 50 E 6 9 30.03 1017 10 16 N/A
3:52 am 03:52 Clear 38 3.3 22 -5.6 52 52 ESE 3 6 30.03 1017 10 16 N/A
4:52 am 04:52 Clear 39 3.9 19 -7.2 45 45 E 5 7 30.05 1018 10 16 N/A
5:52 am 05:52 Clear 37 2.8 19 -7.2 48 48 ESE 6 9 30.04 1017 10 16 N/A
6:52 am 06:52 Mostly Sunny 38 3.3 19 -7.2 46 46 ESE 5 7 30.06 1018 10 16 N/A
7:52 am 07:52 Mostly Sunny 38 3.3 21 -6.1 51 51 SSE 6 9 30.08 1019 10 16 N/A
8:52 am 08:52 Mostly Sunny 43 6.1 23 -5 45 45 SSE 8 13 30.09 1019 10 16 N/A
9:52 am 09:52 Sunny 48 8.9 24 -4.4 39 39 SSE 5 7 30.09 1019 10 16 N/A
10:52 am 10:52 Mostly Sunny 53 11.7 25 -3.9 34 34 SSE 6 9 30.07 1018 10 16 N/A
11:52 am 11:52 Mostly Sunny 57 13.9 26 -3.3 30 30 VRB 7 11 30.07 1018 10 16 N/A
12:52 pm 12:52 Mostly Sunny 60 15.6 30 -1.1 32 32 S 9 15 30.03 1017 10 16 N/A
1:52 pm 13:52 Mostly Sunny 63 17.2 33 0.6 33 33 S 10 17 30.00 1016 10 16 N/A
2:52 pm 14:52 Mostly Cloudy 65 18.3 34 1.1 32 32 SSW 13 20 29.97 1015 10 16 N/A
3:52 pm 15:52 Partly Cloudy 67 19.4 34 1.1 30 30 SW 8 13 29.95 1014 10 16 N/A
4:52 pm 16:52 Mostly Sunny 68 20 36 2.2 31 31 SW 10 17 29.92 1013 10 16 N/A
5:52 pm 17:52 Mostly Cloudy 68 20 35 1.7 30 30 SW 13 20 29.91 1013 10 16 N/A
6:52 pm 18:52 Mostly Cloudy 67 19.4 35 1.7 31 31 SSW 14 22 29.88 1012 10 16 N/A
7:52 pm 19:52 Cloudy 64 17.8 36 2.2 35 35 S 9 15 29.89 1012 10 16 N/A
8:52 pm 20:52 Mostly Cloudy 60 15.6 37 2.8 42 42 S 7 11 29.92 1013 10 16 N/A
9:52 pm 21:52 Cloudy 61 16.1 37 2.8 41 41 S 10 17 29.92 1013 10 16 N/A
10:52 pm 22:52 Cloudy 60 15.6 37 2.8 42 42 SSW 8 13 29.92 1013 10 16 N/A
11:52 pm 23:52 Cloudy 59 15 37 2.8 44 44 SSW 8 13 29.90 1012 10 16 N/A

Powered by AerisWeather